Weather History for Oxford, CT

Change the Weather History Date:

Tuesday, October 28, 2014

  Actual Average Record
Temperature  
Mean Temperature 55 °F -  
Max Temperature 69 °F 53 °F 71 °F (2010)
Min Temperature 41 °F 37 °F 28 °F (2005)
Degree Days  
Heating Degree Days 10    
Growing Degree Days 5 (Base 50)    
Moisture  
Dew Point 41 °F    
Average Humidity 69    
Maximum Humidity 82    
Minimum Humidity 49    
Precipitation  
Precipitation 0.00 in - - ()
Sea Level Pressure  
Sea Level Pressure 30.00 in    
Wind  
Wind Speed 2 mph (South)    
Max Wind Speed 9 mph    
Max Gust Speed -    
Visibility 10 miles    
Events      
Averages and records for this station are not official NWS values.
T = Trace of Precipitation, MM = Missing Value Source: NWS Daily Summary

Daily Weather History Graph

Daily Weather History Graph

Search for Another Location

Airport:

Trip Planner

Search our weather history database for the weather conditions in past years. The results will help you decide how hot, cold, wet, or windy it might be!

Date:

Astronomy

Oct. 28, 2014 Rise Set
Actual Time 7:19 AM EDT 5:52 PM EDT
Civil Twilight 6:50 AM EDT 6:21 PM EDT
Nautical Twilight 6:18 AM EDT 6:53 PM EDT
Astronomical Twilight 5:46 AM EDT 7:25 PM EDT
Moon 11:47 AM EDT (10/28) 9:54 PM EDT (10/28)
Length of Visible Light 11h 30m
Length of Day
10h 33m
Waxing Crescent, 24% of the Moon is Illuminated
Oct 28
Waxing Crescent
Oct 30
First Quarter
Nov 6
Full
Nov 14
Last Quarter
Nov 22
New

Hourly Weather History & Observations

Time (EDT) Temp. Windchill Dew Point Humidity Pressure Visibility Wind Dir Wind Speed Gust Speed Precip Events Conditions
12:15 AM 42.8 °F - 33.8 °F 70% 30.04 in 10.0 mi Calm Calm - N/A   Clear
12:35 AM 41.0 °F - 32.0 °F 70% 30.03 in 10.0 mi Calm Calm - N/A   Clear
12:55 AM 42.8 °F - 33.8 °F 70% 30.04 in 10.0 mi Calm Calm - N/A   Clear
1:15 AM 42.8 °F - 32.0 °F 66% 30.05 in 10.0 mi Calm Calm - N/A   Partly Cloudy
1:35 AM 41.0 °F - 32.0 °F 70% 30.06 in 10.0 mi Calm Calm - N/A   Scattered Clouds
1:55 AM 42.8 °F - 33.8 °F 70% 30.05 in 10.0 mi Calm Calm - N/A   Scattered Clouds
2:15 AM 42.8 °F - 33.8 °F 70% 30.05 in 10.0 mi Calm Calm - N/A   Mostly Cloudy
2:35 AM 42.8 °F - 35.6 °F 76% 30.04 in 10.0 mi Calm Calm - N/A   Overcast
2:55 AM 44.6 °F - 35.6 °F 71% 30.04 in 10.0 mi Calm Calm - N/A   Partly Cloudy
3:15 AM 42.8 °F 41.1 °F 33.8 °F 70% 30.04 in 10.0 mi SW 3.5 mph - N/A   Clear
3:35 AM 42.8 °F - 33.8 °F 70% 30.03 in 10.0 mi Calm Calm - N/A   Clear
3:55 AM 42.8 °F - 33.8 °F 70% 30.03 in 10.0 mi Calm Calm - N/A   Clear
4:15 AM 41.0 °F - 33.8 °F 76% 30.03 in 10.0 mi Calm Calm - N/A   Clear
4:35 AM 44.6 °F - 33.8 °F 66% 30.03 in 10.0 mi Calm Calm - N/A   Clear
4:55 AM 46.4 °F - 33.8 °F 62% 30.03 in 10.0 mi Calm Calm - N/A   Clear
5:15 AM 44.6 °F - 33.8 °F 66% 30.04 in 10.0 mi Calm Calm - N/A   Scattered Clouds
5:35 AM 44.6 °F 43.1 °F 33.8 °F 66% 30.03 in 10.0 mi South 3.5 mph - N/A   Scattered Clouds
5:50 AM 46.4 °F 44.3 °F 37.4 °F 71% 30.03 in 10.0 mi South 4.6 mph - N/A   Mostly Cloudy
6:50 AM 48.2 °F - 39.2 °F 71% 30.03 in 10.0 mi SSE 5.8 mph - N/A   Mostly Cloudy
7:50 AM 51.8 °F - 42.8 °F 71% 30.03 in 10.0 mi SSW 5.8 mph - N/A   Mostly Cloudy
9:45 AM 57.2 °F - 46.4 °F 67% 30.03 in 10.0 mi SW 8.1 mph - N/A   Scattered Clouds
11:50 AM 62.6 °F - 46.4 °F 55% 30.02 in 10.0 mi South 6.9 mph - N/A   Partly Cloudy
12:50 PM 66.2 °F - 48.2 °F 52% 30.00 in 10.0 mi SW 5.8 mph - N/A   Partly Cloudy
1:50 PM 68.0 °F - 48.2 °F 49% 29.99 in 10.0 mi South 6.9 mph - N/A   Mostly Cloudy
2:50 PM 69.8 °F - 50.0 °F 49% 29.98 in 10.0 mi South 8.1 mph - N/A   Mostly Cloudy
3:50 PM 68.0 °F - 50.0 °F 52% 29.98 in 10.0 mi South 9.2 mph - N/A   Overcast
4:50 PM 64.4 °F - 48.2 °F 56% 29.95 in 10.0 mi South 8.1 mph - N/A   Overcast
5:50 PM 60.8 °F - 46.4 °F 59% 29.95 in 10.0 mi South 6.9 mph - N/A   Overcast
6:50 PM 59.0 °F - 46.4 °F 63% 29.96 in 10.0 mi South 6.9 mph - N/A   Overcast
7:50 PM 57.2 °F - 48.2 °F 72% 29.95 in 10.0 mi South 3.5 mph - N/A   Mostly Cloudy
8:50 PM 55.4 °F - 48.2 °F 77% 29.95 in 10.0 mi Calm Calm - N/A   Mostly Cloudy
9:15 PM 55.4 °F - 48.2 °F 77% 29.94 in 10.0 mi SE 3.5 mph - N/A   Clear
9:35 PM 55.4 °F - 48.2 °F 77% 29.94 in 10.0 mi Calm Calm - N/A   Clear
9:55 PM 53.6 °F - 46.4 °F 77% 29.95 in 10.0 mi Calm Calm - N/A   Clear
10:15 PM 57.2 °F - 51.8 °F 82% 29.95 in 10.0 mi West 3.5 mph - N/A   Clear
10:35 PM 55.4 °F - 48.2 °F 77% 29.94 in 10.0 mi Calm Calm - N/A   Clear
10:55 PM 53.6 °F - 48.2 °F 82% 29.94 in 10.0 mi Calm Calm - N/A   Clear
11:15 PM 53.6 °F - 48.2 °F 82% 29.94 in 10.0 mi SE 3.5 mph - N/A   Clear
11:35 PM 55.4 °F - 50.0 °F 82% 29.94 in 10.0 mi South 3.5 mph - N/A   Clear
11:55 PM 55.4 °F - 50.0 °F 82% 29.93 in 10.0 mi SSE 3.5 mph - N/A   Clear